Wind_Speed
12 11 14 17 20 23 25 28 28 30 31 33 34 36 36 38 38 38 36 37 39 39 40 39 41 40 40 39 41 39 38 37 40 41 42 42 41 44 45 47 48 53 61
14 16 21 22 26 28 31 31 32 32 32 34 37 37 39 40 40 42 44 43 45 44 47 46 46 47 47 47 46 46 46 46 46 46 49 50 49 49 51 52 52 55 59
21 23 23 27 30 33 34 36 36 36 34 32 37 39 40 42 43 44 45 47 49 51 50 51 52 53 55 54 53 54 56 55 54 54 57 58 58 60 58 57 59 58 58
25 27 29 29 29 31 32 33 33 35 37 39 40 42 45 47 49 51 51 52 55 55 56 57 58 58 61 63 63 63 63 62 64 64 66 69 70 71 68 64 63 61 61
32 33 33 34 35 37 37 38 38 38 40 42 45 46 48 51 54 56 57 58 60 60 62 63 64 65 66 65 66 67 69 68 69 70 73 76 78 77 75 75 74 71 67
35 36 38 38 39 43 44 45 47 47 47 49 51 53 55 58 61 62 61 63 65 67 67 66 67 68 68 70 71 70 71 72 74 76 79 82 85 83 83 84 85 82 77
41 41 43 45 48 51 51 52 53 55 56 57 58 58 62 64 67 68 68 69 70 71 70 71 73 73 74 75 74 75 76 78 78 81 86 89 89 88 89 91 90 86 82
44 46 47 49 51 53 55 56 56 58 59 61 62 64 66 70 72 74 73 73 74 74 74 75 77 80 80 78 80 81 81 83 85 88 92 94 95 94 95 98 97 94 90
49 50 51 53 55 57 58 58 60 62 64 66 67 68 72 73 73 75 76 78 79 78 79 81 83 84 84 83 83 84 87 87 91 94 100 103 103 100 102 105 100 97 93
53 54 57 57 59 63 65 63 67 69 70 72 74 76 75 77 78 77 80 83 83 83 83 87 88 84 88 89 90 92 94 94 96 102 106 106 105 106 106 106 100 95 87
58 59 59 60 66 67 69 71 73 76 78 79 81 81 83 83 83 82 83 87 88 87 89 94 93 90 94 92 92 94 96 99 104 110 108 106 109 109 105 104 100 94 83
64 63 64 65 67 70 70 72 77 80 82 85 86 86 87 89 91 89 89 93 91 90 92 95 95 97 97 98 99 103 103 108 115 110 111 110 109 106 98 96 81 83 75
68 69 70 71 72 72 74 77 81 85 87 89 91 91 94 93 93 93 94 94 95 93 95 97 101 102 101 102 104 107 113 115 113 112 110 112 107 98 90 76 66 73 74
73 76 78 78 79 81 82 84 87 90 91 95 96 97 100 98 95 99 97 100 98 97 98 102 102 104 105 106 114 115 112 113 115 114 111 108 103 91 76 68 59 64 69
79 81 83 86 87 88 90 93 95 96 98 100 103 104 103 103 104 100 104 106 100 99 103 103 104 110 112 117 116 116 116 116 116 114 109 101 89 76 68 60 54 55 60
85 87 90 92 94 96 98 99 102 104 106 108 109 110 110 107 109 109 111 103 102 105 105 109 116 117 121 120 123 120 118 118 115 114 98 83 73 67 59 52 50 51 54
91 93 95 96 98 102 104 107 109 111 113 114 115 112 112 114 114 117 105 106 109 109 110 123 121 122 124 127 127 122 121 119 112 97 80 71 65 58 52 46 45 49 50
97 100 101 103 104 107 110 113 115 116 118 118 117 118 119 119 117 111 112 115 119 122 127 125 124 127 128 130 125 124 116 110 92 74 68 62 53 48 44 42 44 45 49
105 106 109 111 114 116 117 119 120 121 123 123 121 121 120 119 118 122 123 127 126 126 126 126 129 130 128 124 120 115 102 84 70 66 57 48 43 41 40 39 38 39 41
112 114 116 119 121 123 125 126 126 125 125 127 126 127 128 126 131 134 135 131 129 131 130 132 128 124 122 115 108 92 77 67 62 55 46 41 37 38 36 34 35 36 38
117 119 122 124 126 128 130 130 129 130 133 132 131 133 137 138 139 137 135 135 134 131 128 128 124 119 106 94 83 71 65 57 50 44 39 35 35 35 33 32 32 34 37
124 127 128 130 132 132 134 137 137 138 139 144 142 141 140 141 139 138 137 135 133 132 126 115 104 97 83 76 69 62 54 46 41 37 34 34 33 33 31 31 32 34 36
131 133 133 133 134 136 140 143 146 147 147 145 142 142 139 138 137 138 141 138 127 110 103 91 80 76 71 67 59 50 43 39 35 33 33 33 30 30 30 31 33 34 34
134 135 139 142 143 144 147 150 148 149 145 143 142 142 140 139 138 136 130 116 106 93 83 76 71 67 63 54 47 40 37 33 30 32 33 32 29 29 30 30 30 32 32
141 144 146 148 150 152 151 146 143 143 141 140 138 140 138 134 124 113 106 98 89 79 77 72 66 60 53 45 39 36 33 30 30 32 31 30 30 30 30 29 29 29 30
146 152 157 157 152 147 146 142 139 140 137 136 135 130 125 115 109 99 91 85 81 76 68 64 56 49 42 39 36 32 30 29 31 34 31 30 29 30 29 28 28 29 29
Wind_Direction
327 330 341 342 331 338 337 339 336 334 332 329 327 325 325 326 326 325 325 322 319 318 322 325 324 321 317 315 312 310 308 303 304 300 298 297 287 288 282 273 266 263 259
309 322 319 322 327 325 328 331 332 331 325 324 322 320 319 316 320 318 318 318 317 315 316 316 318 318 317 313 310 310 307 306 304 302 301 300 297 293 287 281 273 262 258
316 326 317 311 316 316 316 316 317 317 316 316 316 315 315 314 314 313 311 309 313 310 311 312 312 312 313 313 314 310 308 308 307 306 306 301 296 297 295 290 282 272 261
313 311 308 310 311 311 310 310 310 313 312 312 313 312 314 315 312 312 311 308 309 310 309 310 309 308 306 305 306 306 304 303 302 302 305 305 302 299 296 291 291 282 270
297 301 303 303 302 300 298 297 298 300 301 303 300 302 303 305 304 306 305 303 303 302 304 305 304 304 306 303 303 302 300 298 300 302 302 304 302 299 295 295 294 289 280
300 302 302 300 299 299 297 298 298 298 300 300 301 302 302 303 304 304 305 304 304 306 303 302 304 303 303 302 300 300 300 296 294 296 298 299 301 297 295 294 293 289 283
298 297 297 297 299 299 299 301 300 300 299 300 301 304 309 304 305 305 302 304 306 304 303 301 301 299 300 300 299 300 300 295 293 295 298 299 301 296 292 294 292 290 285
303 304 304 303 301 304 305 304 304 304 303 303 303 306 308 309 309 307 306 304 304 302 301 299 300 304 303 299 298 299 299 296 294 295 297 299 300 296 296 296 295 291 287
300 300 300 300 300 300 299 300 301 300 302 303 304 306 307 309 310 308 306 307 303 301 301 300 301 303 302 300 300 300 297 296 295 295 300 298 298 297 294 295 292 289 284
299 300 299 298 299 300 298 297 298 299 299 302 303 305 309 309 311 310 307 306 302 301 300 302 302 302 302 299 299 297 297 297 295 298 299 297 297 295 294 294 292 290 282
298 299 298 299 300 299 298 294 294 297 298 300 302 304 306 308 309 307 306 305 305 302 300 301 301 302 300 296 296 295 295 295 299 299 299 294 297 297 296 297 296 287 285
295 295 294 296 299 300 298 298 298 298 299 301 303 304 306 308 309 310 305 304 302 300 301 302 300 300 298 298 298 296 295 296 300 299 299 297 296 296 295 294 286 280 270
292 293 294 295 297 297 298 298 298 298 299 299 302 304 305 306 308 308 306 304 302 300 301 301 299 297 297 298 298 297 296 299 300 300 299 299 299 298 294 284 272 272 266
294 297 297 298 298 298 298 298 298 299 299 300 302 304 304 306 306 306 306 306 302 297 302 300 298 298 299 298 299 301 301 300 301 302 300 299 299 295 287 280 267 260 256
296 297 297 297 298 299 299 299 298 299 299 300 301 302 304 304 305 305 304 304 298 294 297 297 298 298 299 301 303 302 302 302 303 302 302 300 295 290 285 279 267 256 251
294 295 296 298 299 299 299 299 299 300 300 300 300 300 302 302 304 304 304 298 296 298 296 299 300 299 301 303 303 302 302 301 302 301 298 296 291 287 281 274 267 256 248
293 295 296 297 298 298 299 299 298 298 298 300 299 299 301 303 303 303 300 298 299 297 296 299 300 301 302 302 303 301 302 301 300 299 295 293 288 282 276 272 259 249 244
293 293 295 296 297 297 297 297 298 298 298 298 298 300 301 301 302 301 301 299 298 297 298 300 303 302 303 302 301 298 300 299 298 295 293 290 282 275 272 266 256 248 242
293 294 294 294 294 295 296 297 297 298 298 299 300 301 301 300 298 298 297 299 299 299 299 300 301 302 301 297 298 300 298 296 295 293 289 281 273 269 267 262 252 243 238
290 290 292 293 294 295 295 297 298 300 300 301 300 300 300 298 298 299 298 299 299 298 299 300 300 298 299 297 297 296 295 295 292 288 280 272 264 262 260 253 246 241 237
290 291 292 293 294 296 298 299 299 299 299 298 298 297 298 297 297 297 298 298 298 298 299 299 298 297 296 296 296 295 296 291 286 280 272 263 257 257 253 250 244 239 238
290 290 292 295 296 298 299 299 298 298 297 298 298 296 296 297 296 296 296 297 298 298 300 299 297 295 295 295 295 293 289 284 279 269 259 253 253 253 253 250 247 243 241
293 294 295 296 297 298 297 297 297 297 296 295 294 295 294 295 295 296 297 298 299 298 299 297 296 295 295 296 291 285 282 278 267 254 248 248 249 250 247 246 245 245 243
294 294 294 294 295 295 296 297 296 295 295 296 295 295 294 296 296 296 295 297 300 301 297 298 297 296 294 290 283 278 275 264 250 245 244 243 248 246 244 243 242 243 242
292 293 293 293 294 295 295 294 293 293 294 294 294 293 293 295 295 297 298 300 299 300 299 297 295 294 288 281 277 272 261 249 241 240 240 240 243 244 244 243 239 241 242
293 291 292 293 295 295 293 292 292 292 292 291 291 292 293 293 294 296 298 299 297 298 298 294 291 285 280 276 270 257 248 239 234 235 234 235 238 241 243 245 240 241 243
Height
10777 10776 10775 10774 10774 10772 10770 10769 10767 10765 10762 10760 10758 10756 10754 10752 10749 10745 10744 10741 10738 10735 10733 10731 10728 10725 10722 10720 10716 10714 10712 10710 10708 10706 10704 10703 10702 10700 10698 10695 10694 10694 10696
10776 10774 10772 10770 10768 10767 10765 10763 10761 10759 10758 10755 10753 10751 10748 10746 10743 10739 10736 10732 10730 10727 10723 10720 10717 10714 10710 10708 10705 10703 10700 10697 10696 10694 10692 10689 10688 10686 10684 10681 10680 10678 10677
10771 10769 10768 10766 10764 10762 10759 10757 10755 10753 10751 10749 10746 10743 10740 10738 10735 10732 10728 10723 10720 10717 10714 10709 10706 10702 10697 10695 10692 10689 10685 10682 10680 10678 10676 10675 10673 10671 10668 10665 10663 10662 10660
10766 10764 10762 10760 10758 10756 10753 10751 10748 10746 10743 10740 10737 10734 10731 10728 10725 10721 10717 10712 10708 10705 10701 10697 10693 10690 10685 10680 10677 10673 10670 10666 10663 10660 10657 10655 10653 10650 10648 10644 10644 10643 10641
10759 10757 10755 10753 10750 10748 10744 10741 10738 10736 10732 10730 10726 10724 10720 10716 10713 10710 10706 10701 10695 10692 10688 10683 10678 10674 10671 10666 10662 10658 10654 10650 10646 10642 10638 10635 10633 10629 10625 10621 10620 10619 10618
10752 10750 10747 10745 10742 10739 10736 10732 10729 10726 10723 10719 10715 10712 10709 10704 10701 10697 10693 10688 10682 10678 10674 10669 10665 10660 10655 10648 10642 10641 10636 10632 10627 10622 10618 10616 10611 10605 10601 10597 10595 10592 10591
10743 10741 10738 10735 10732 10729 10725 10721 10717 10714 10710 10707 10703 10699 10696 10691 10687 10682 10678 10674 10669 10663 10657 10653 10648 10643 10639 10632 10623 10618 10615 10611 10607 10602 10597 10593 10588 10583 10576 10569 10564 10560 10559
10733 10730 10727 10724 10720 10716 10713 10709 10705 10701 10697 10693 10690 10686 10681 10676 10672 10666 10661 10657 10652 10647 10640 10633 10630 10625 10620 10613 10605 10599 10593 10588 10584 10579 10573 10567 10562 10555 10547 10539 10533 10528 10525
10722 10719 10715 10712 10709 10705 10700 10696 10692 10686 10681 10677 10674 10671 10666 10660 10656 10647 10641 10637 10633 10627 10621 10613 10608 10605 10597 10590 10583 10576 10570 10566 10560 10554 10547 10539 10531 10525 10519 10512 10505 10496 10490
10710 10707 10703 10699 10695 10690 10685 10680 10675 10670 10665 10662 10656 10652 10650 10646 10642 10636 10625 10618 10610 10606 10598 10591 10586 10582 10573 10567 10560 10555 10547 10541 10535 10528 10520 10511 10502 10494 10487 10478 10468 10458 10452
10696 10693 10689 10685 10681 10676 10671 10665 10658 10653 10648 10643 10639 10634 10628 10624 10621 10617 10611 10601 10596 10588 10580 10568 10564 10560 10550 10543 10537 10530 10522 10514 10508 10499 10491 10481 10472 10462 10454 10443 10431 10418 10418
10681 10678 10675 10671 10667 10661 10656 10650 10642 10635 10629 10623 10618 10615 10609 10603 10598 10595 10591 10580 10574 10566 10560 10547 10540 10535 10528 10519 10513 10505 10496 10487 10477 10468 10455 10447 10440 10429 10425 10417 10406 10386 10393
10667 10663 10660 10656 10650 10644 10639 10633 10625 10618 10609 10602 10596 10591 10587 10582 10578 10570 10565 10560 10552 10544 10536 10527 10516 10508 10502 10495 10485 10477 10467 10457 10445 10434 10422 10411 10402 10393 10387 10387 10383 10370 10365
10650 10646 10642 10637 10631 10625 10619 10613 10604 10597 10590 10581 10575 10570 10563 10559 10554 10548 10542 10537 10527 10518 10514 10506 10492 10481 10476 10468 10459 10445 10435 10425 10413 10400 10389 10377 10368 10359 10355 10354 10357 10349 10345
10629 10625 10620 10615 10609 10603 10597 10591 10583 10576 10568 10560 10553 10547 10541 10534 10529 10523 10515 10509 10502 10494 10484 10480 10470 10454 10447 10438 10427 10415 10403 10392 10379 10367 10357 10346 10337 10330 10325 10325 10327 10328 10326
10611 10605 10598 10593 10586 10580 10573 10565 10558 10551 10544 10537 10530 10524 10517 10510 10502 10495 10487 10478 10472 10467 10460 10449 10442 10430 10415 10403 10393 10381 10370 10360 10348 10337 10328 10319 10311 10307 10304 10304 10304 10305 10309
10588 10581 10573 10568 10562 10554 10547 10541 10534 10527 10520 10512 10505 10498 10491 10483 10475 10468 10460 10448 10440 10436 10430 10420 10410 10398 10385 10371 10359 10347 10337 10327 10319 10308 10300 10295 10288 10285 10284 10284 10286 10288 10293
10567 10560 10551 10544 10537 10531 10524 10516 10507 10499 10490 10484 10478 10472 10464 10455 10444 10436 10429 10420 10410 10404 10398 10389 10379 10367 10354 10339 10326 10317 10308 10297 10290 10281 10276 10273 10269 10267 10266 10267 10269 10273 10278
10539 10534 10527 10521 10513 10506 10498 10490 10482 10473 10461 10454 10447 10439 10429 10421 10414 10407 10401 10393 10384 10372 10364 10357 10346 10334 10322 10309 10296 10288 10279 10270 10265 10259 10255 10254 10253 10251 10253 10254 10256 10260 10265
10514 10507 10500 10494 10486 10478 10470 10461 10453 10443 10430 10421 10414 10405 10397 10390 10382 10373 10365 10357 10350 10339 10331 10323 10315 10307 10293 10278 10268 10260 10254 10248 10244 10239 10238 10238 10238 10240 10241 10244 10246 10251 10255
10489 10483 10474 10466 10458 10448 10440 10430 10421 10411 10399 10391 10384 10376 10366 10355 10346 10337 10331 10322 10317 10309 10301 10295 10282 10270 10261 10252 10243 10235 10232 10228 10224 10223 10223 10225 10227 10228 10231 10234 10237 10241 10246
10461 10453 10444 10434 10425 10415 10401 10388 10385 10379 10368 10358 10350 10339 10330 10321 10312 10304 10298 10290 10287 10278 10270 10259 10246 10237 10233 10226 10221 10216 10214 10211 10209 10209 10211 10214 10217 10219 10222 10226 10228 10232 10237
10427 10418 10407 10399 10391 10382 10370 10361 10347 10336 10330 10323 10314 10305 10297 10290 10281 10272 10263 10258 10254 10246 10238 10227 10220 10214 10208 10204 10201 10199 10197 10197 10196 10198 10201 10204 10207 10210 10214 10217 10220 10224 10228
10395 10386 10375 10367 10360 10352 10342 10330 10315 10298 10293 10287 10278 10267 10261 10256 10248 10240 10234 10228 10224 10216 10210 10203 10197 10192 10187 10186 10184 10183 10183 10184 10186 10189 10193 10195 10199 10202 10206 10209 10213 10216 10220
10369 10356 10341 10335 10326 10314 10307 10294 10283 10270 10260 10253 10246 10235 10224 10220 10214 10207 10206 10201 10195 10189 10184 10180 10176 10173 10170 10169 10169 10169 10170 10173 10177 10180 10184 10188 10192 10195 10199 10203 10206 10209 10212
10334 10322 10301 10293 10292 10281 10267 10255 10249 10238 10232 10224 10211 10202 10194 10188 10185 10186 10183 10177 10172 10169 10163 10160 10157 10156 10155 10154 10155 10157 10160 10164 10168 10172 10176 10180 10184 10188 10192 10196 10199 10202 10205